STARLINK-32838 (62827 NORAD) Tracking and Keplerian Element Data

This shows tracking and keplerian element data for the satellite.

Feedback or suggestion? Click here.




ElementValue
Catalog62827
NameSTARLINK-32838
Epoch Orbit270
Epoch Day35.20724703
Epoch Year2025
RAAN11.5755
Inclination53.1474
Eccentricity0.0002979
Argument of Perigee147.1172
Mean Anonmoly213.0042
Mean Motion15.94639902
Decay Rate0.0016578
L11 62827U 25018X 25035.20724703 .00165780 21764-4 43285-3 0 9997
L22 62827 53.1474 11.5755 0002979 147.1172 213.0042 15.94639902 2704



Live tracking and technical data element details for STARLINK-32838 (NORAD 62827). STARLINK-32838 can be tracked NOW for your location showing map with azimuth and elevation plus other details from your city location.







IsCatalogInMostPopularTable: catalog: 62827, numindb: 4
Update: records affected: 1



GetName: 62827 STARLINK-32838

Hit Count: updated at: Sun, 09 Feb 2025 14:45:42 GMT